Weather History for KIOB - June, 2013

Change the Weather History Date:

Sunday, June 2, 2013

  Actual Average (KLEX) Record (KLEX)
Temperature  
Mean Temperature 70 °F 69 °F  
Max Temperature 75 °F 79 °F 96 °F (1951)
Min Temperature 64 °F 59 °F 45 °F (1993)
Degree Days  
Heating Degree Days 0 1  
Month to date heating degree days 2  
Since 1 June heating degree days 2  
Since 1 July heating degree days 4602  
Cooling Degree Days 4 5  
Month to date cooling degree days 10  
Year to date cooling degree days 117  
Since 1 June cooling degree days 10  
Growing Degree Days 20 (Base 50)    
Moisture  
Dew Point 63 °F    
Average Humidity 80    
Maximum Humidity 88    
Minimum Humidity 65    
Precipitation  
Precipitation 0.00 in 0.16 in 1.08 in (1935)
Month to date precipitation 0.33  
Year to date precipitation 19.66  
Snow  
Snow 0.00 in 0.00 in - ()
Month to date snowfall 0.0  
Since 1 June snowfall 0.0  
Since 1 July snowfall 13.0  
Snow Depth -    
Sea Level Pressure  
Sea Level Pressure 29.94 in    
Wind  
Wind Speed 6 mph (West)    
Max Wind Speed 13 mph    
Max Gust Speed 20 mph    
Visibility 10 miles    
Events      
T = Trace of Precipitation, MM = Missing Value Source: NWS Daily Summary

Daily Weather History Graph

Daily Weather History Graph

Search for Another Location

Airport or City:

Trip Planner

Search our weather history database for the weather conditions in past years. The results will help you decide how hot, cold, wet, or windy it might be!

Date:

Astronomy

Jun. 02, 2013 Rise Set
Actual Time 6:14 AM EDT 8:53 PM EDT
Civil Twilight 5:43 AM EDT 9:24 PM EDT
Nautical Twilight 5:04 AM EDT 10:03 PM EDT
Astronomical Twilight 4:21 AM EDT 10:46 PM EDT
Moon 2:35 AM EDT (6/2) 3:28 PM EDT (6/2)
Length of Visible Light 15h 41m
Length of Day
14h 39m
Waning Crescent, 31% of the Moon is Illuminated
Jun 2
Waning Crescent
Jun 8
New
Jun 16
First Quarter
Jun 23
Full
Jun 30
Last Quarter

Hourly Weather History & Observations

Time (EDT) Temp. Dew Point Humidity Pressure Visibility Wind Dir Wind Speed Gust Speed Precip Events Conditions
12:15 AM 69.8 °F 66.2 °F 88% 29.91 in 10.0 mi West 5.8 mph - N/A   Scattered Clouds
12:35 AM 69.8 °F 66.2 °F 88% 29.92 in 10.0 mi West 6.9 mph - N/A   Mostly Cloudy
12:55 AM 69.8 °F 66.2 °F 88% 29.92 in 10.0 mi West 8.1 mph - N/A   Overcast
1:15 AM 69.8 °F 66.2 °F 88% 29.92 in 10.0 mi West 12.7 mph - N/A   Overcast
1:35 AM 69.8 °F 64.4 °F 83% 29.92 in 10.0 mi West 8.1 mph 19.6 mph N/A   Overcast
1:55 AM 69.8 °F 64.4 °F 83% 29.93 in 10.0 mi West 9.2 mph 17.3 mph N/A   Overcast
2:15 AM 69.8 °F 64.4 °F 83% 29.92 in 10.0 mi West 11.5 mph 18.4 mph N/A   Overcast
2:35 AM 68.0 °F 64.4 °F 88% 29.92 in 10.0 mi West 10.4 mph - N/A   Overcast
2:55 AM 68.0 °F 64.4 °F 88% 29.92 in 10.0 mi West 8.1 mph - N/A   Overcast
3:15 AM 68.0 °F 64.4 °F 88% 29.92 in 10.0 mi West 6.9 mph - N/A   Scattered Clouds
3:35 AM 68.0 °F 64.4 °F 88% 29.92 in 10.0 mi WSW 6.9 mph - N/A   Scattered Clouds
3:55 AM 68.0 °F 64.4 °F 88% 29.92 in 10.0 mi West 10.4 mph - N/A   Mostly Cloudy
4:15 AM 68.0 °F 64.4 °F 88% 29.92 in 10.0 mi WSW 8.1 mph - N/A   Mostly Cloudy
4:35 AM 68.0 °F 64.4 °F 88% 29.92 in 10.0 mi WSW 5.8 mph - N/A   Mostly Cloudy
4:55 AM 68.0 °F 64.4 °F 88% 29.93 in 10.0 mi WSW 8.1 mph 16.1 mph N/A   Overcast
5:15 AM 66.2 °F 62.6 °F 88% 29.92 in 10.0 mi West 9.2 mph 17.3 mph N/A   Mostly Cloudy
5:35 AM 66.2 °F 62.6 °F 88% 29.93 in 10.0 mi West 6.9 mph - N/A   Mostly Cloudy
5:55 AM 66.2 °F 62.6 °F 88% 29.93 in 10.0 mi West 6.9 mph - N/A   Overcast
6:15 AM 66.2 °F 62.6 °F 88% 29.93 in 10.0 mi West 6.9 mph - N/A   Overcast
6:35 AM 66.2 °F 62.6 °F 88% 29.94 in 10.0 mi West 5.8 mph - N/A   Overcast
6:55 AM 66.2 °F 62.6 °F 88% 29.95 in 10.0 mi WSW 3.5 mph - N/A   Overcast
7:15 AM 66.2 °F 62.6 °F 88% 29.95 in 10.0 mi WSW 4.6 mph - N/A   Overcast
7:35 AM 66.2 °F 62.6 °F 88% 29.95 in 10.0 mi West 5.8 mph - N/A   Overcast
7:55 AM 66.2 °F 62.6 °F 88% 29.95 in 10.0 mi West 4.6 mph - N/A   Overcast
8:15 AM 66.2 °F 62.6 °F 88% 29.95 in 10.0 mi WNW 4.6 mph - N/A   Overcast
8:35 AM 68.0 °F 62.6 °F 83% 29.95 in 10.0 mi Calm Calm - N/A   Overcast
8:55 AM 68.0 °F 62.6 °F 83% 29.95 in 10.0 mi West 3.5 mph - N/A   Overcast
9:15 AM 68.0 °F 62.6 °F 83% 29.96 in 10.0 mi West 4.6 mph - N/A   Overcast
9:35 AM 68.0 °F 62.6 °F 83% 29.95 in 10.0 mi West 4.6 mph - N/A   Overcast
9:55 AM 68.0 °F 62.6 °F 83% 29.95 in 10.0 mi West 4.6 mph - N/A   Overcast
10:15 AM 68.0 °F 62.6 °F 83% 29.97 in 10.0 mi West 3.5 mph - N/A   Overcast
10:35 AM 68.0 °F 62.6 °F 83% 29.97 in 10.0 mi WSW 4.6 mph - N/A   Overcast
10:55 AM 68.0 °F 62.6 °F 83% 29.97 in 10.0 mi WSW 4.6 mph - N/A   Overcast
11:15 AM 69.8 °F 64.4 °F 83% 29.97 in 10.0 mi WSW 4.6 mph - N/A   Overcast
11:35 AM 69.8 °F 64.4 °F 83% 29.97 in 10.0 mi SW 5.8 mph - N/A   Overcast
11:55 AM 69.8 °F 62.6 °F 78% 29.98 in 10.0 mi WSW 4.6 mph - N/A   Overcast
12:15 PM 69.8 °F 64.4 °F 83% 29.98 in 10.0 mi WSW 4.6 mph - N/A   Overcast
12:35 PM 69.8 °F 64.4 °F 83% 29.98 in 10.0 mi WSW 5.8 mph - N/A   Overcast
12:55 PM 69.8 °F 62.6 °F 78% 29.98 in 10.0 mi SSW 9.2 mph - N/A   Overcast
1:15 PM 69.8 °F 64.4 °F 83% 29.96 in 10.0 mi SSW 6.9 mph - N/A   Overcast
1:35 PM 71.6 °F 64.4 °F 78% 29.95 in 10.0 mi SW 4.6 mph - N/A   Mostly Cloudy
1:55 PM 71.6 °F 64.4 °F 78% 29.95 in 10.0 mi SW 3.5 mph - N/A   Scattered Clouds
2:15 PM 73.4 °F 62.6 °F 69% 29.95 in 10.0 mi South 5.8 mph - N/A   Scattered Clouds
2:35 PM 73.4 °F 62.6 °F 69% 29.95 in 10.0 mi Calm Calm - N/A   Mostly Cloudy
2:55 PM 71.6 °F 62.6 °F 73% 29.95 in 10.0 mi Calm Calm - N/A   Overcast
3:15 PM 73.4 °F 62.6 °F 69% 29.94 in 10.0 mi WSW 4.6 mph - N/A   Overcast
3:35 PM 73.4 °F 62.6 °F 69% 29.93 in 10.0 mi Calm Calm - N/A   Mostly Cloudy
3:55 PM 73.4 °F 62.6 °F 69% 29.93 in 10.0 mi Calm Calm - N/A   Mostly Cloudy
4:15 PM 73.4 °F 62.6 °F 69% 29.93 in 10.0 mi WSW 4.6 mph - N/A   Mostly Cloudy
4:35 PM 75.2 °F 62.6 °F 65% 29.93 in 10.0 mi SW 6.9 mph - N/A   Mostly Cloudy
4:55 PM 75.2 °F 62.6 °F 65% 29.92 in 10.0 mi SW 5.8 mph - N/A   Mostly Cloudy
5:15 PM 75.2 °F 62.6 °F 65% 29.91 in 10.0 mi WSW 3.5 mph - N/A   Mostly Cloudy
5:35 PM 75.2 °F 64.4 °F 69% 29.90 in 10.0 mi Calm Calm - N/A   Scattered Clouds
5:55 PM 75.2 °F 62.6 °F 65% 29.90 in 10.0 mi SW 5.8 mph - N/A   Mostly Cloudy
6:15 PM 75.2 °F 62.6 °F 65% 29.90 in 10.0 mi SSW 3.5 mph - N/A   Overcast
6:35 PM 73.4 °F 64.4 °F 73% 29.90 in 10.0 mi Calm Calm - N/A   Overcast
6:55 PM 73.4 °F 64.4 °F 73% 29.90 in 10.0 mi Calm Calm - N/A   Overcast
7:15 PM 73.4 °F 64.4 °F 73% 29.90 in 10.0 mi Calm Calm - N/A   Overcast
7:35 PM 73.4 °F 64.4 °F 73% 29.90 in 10.0 mi Calm Calm - N/A   Scattered Clouds
7:55 PM 73.4 °F 64.4 °F 73% 29.90 in 10.0 mi NW 3.5 mph - N/A   Clear
8:15 PM 73.4 °F 64.4 °F 73% 29.91 in 10.0 mi Calm Calm - N/A   Mostly Cloudy
8:35 PM 73.4 °F 64.4 °F 73% 29.91 in 10.0 mi NW 4.6 mph - N/A   Scattered Clouds
8:55 PM 69.8 °F 64.4 °F 83% 29.92 in 10.0 mi NW 3.5 mph - N/A   Clear
9:15 PM 69.8 °F 62.6 °F 78% 29.92 in 10.0 mi NNW 3.5 mph - N/A   Clear
9:35 PM 69.8 °F 62.6 °F 78% 29.93 in 10.0 mi NNW 5.8 mph - N/A   Clear
9:55 PM 69.8 °F 60.8 °F 73% 29.93 in 10.0 mi NNW 4.6 mph - N/A   Scattered Clouds
10:15 PM 68.0 °F 60.8 °F 78% 29.93 in 10.0 mi NNW 5.8 mph - N/A   Scattered Clouds
10:35 PM 68.0 °F 59.0 °F 73% 29.94 in 10.0 mi NNW 4.6 mph - N/A   Scattered Clouds
10:55 PM 66.2 °F 59.0 °F 78% 29.95 in 10.0 mi NNW 4.6 mph - N/A   Clear
11:15 PM 66.2 °F 59.0 °F 78% 29.95 in 10.0 mi Calm Calm - N/A   Clear
11:35 PM 64.4 °F 59.0 °F 83% 29.95 in 10.0 mi NNW 3.5 mph - N/A   Clear
11:55 PM 64.4 °F 59.0 °F 83% 29.95 in 10.0 mi North 3.5 mph - N/A   Clear